[[{"header":{"parameterUnit":"m.s-1","parameterCategory":1,"la1":30.2991,"la2":30.254,"lo1":-89.0895,"lo2":-89.0444,"dy":0.0017,"dx":0.0017,"nx":28,"ny":28,"refTime":"2024-03-15T21:00:00:Z","depth":0,"parameterNumber":2,"parameterNumberName":"U-component_of_WINDS"},"data":[0,0,0,0,0,0,0,0,0,0,0,0,0,0,0,0,0,0,0,0,0,0,0,0,0,0,0,0,0,0,0,0,0,0,0,0,0,0,0,0,0,0,0,0,0,0,0,0,0,0,0,0,0,0,0,0,0,0,-0.3311,-0.3311,0,-0.328,-0.328,-0.3279,-0.3267,-0.3267,-0.3267,-0.3267,-0.3232,-0.3231,-0.323,0,0,0,0,0,0,0,0,0,0,0,0,0,-0.3358,-0.3357,-0.3311,-0.3311,-0.3311,-0.328,-0.328,-0.3279,-0.3267,-0.3267,-0.3267,-0.3267,-0.3232,-0.3231,-0.323,0,0,0,0,0,0,0,0,0,0,0,0,0,-0.3333,-0.3357,-0.3311,-0.3301,-0.33,-0.328,-0.328,-0.3279,-0.3267,-0.3267,-0.3267,-0.3268,-0.3233,-0.3231,-0.323,-0.3217,0,0,-0.3225,-0.3224,0,0,0,0,0,0,0,0,-0.3335,-0.3332,-0.3303,-0.3302,-0.33,-0.3278,-0.3283,-0.3258,-0.3267,-0.3279,-0.3267,-0.3268,-0.3247,-0.3244,-0.3238,-0.3216,-0.3214,-0.3225,-0.3224,-0.3223,-0.3223,0,0,0,0,0,0,0,-0.3336,-0.3333,-0.3299,-0.3303,-0.3301,-0.3297,-0.3294,-0.3278,-0.3263,-0.3278,-0.3277,-0.3274,-0.3246,-0.3239,-0.3237,-0.3213,-0.3225,-0.3224,-0.3223,-0.3222,-0.3179,-0.3178,0,0,0,0,0,0,-0.334,-0.3334,-0.33,-0.3298,-0.3318,-0.3296,-0.3292,-0.3285,-0.3263,-0.326,-0.3274,-0.3274,-0.3242,-0.3239,-0.3236,-0.3219,-0.3223,-0.3222,-0.3221,-0.3179,-0.3178,-0.3178,0,0,0,0,0,0,-0.3341,-0.3337,-0.3301,-0.3316,-0.3311,-0.3295,-0.3287,-0.3284,-0.3277,-0.3259,-0.3256,-0.327,-0.3242,-0.3238,-0.3222,-0.3218,-0.3221,-0.322,-0.3179,-0.3179,-0.3178,-0.3187,0,0,0,0,0,0,-0.3343,-0.3338,-0.3334,-0.3316,-0.331,-0.3289,-0.3286,-0.3283,-0.3275,-0.3274,-0.3255,-0.3252,-0.3242,-0.3224,-0.322,-0.3216,-0.3219,-0.3179,-0.3179,-0.3178,-0.3187,-0.3187,-0.3186,0,0,0,0,0,-0.3344,-0.3337,-0.3334,-0.3329,-0.3305,-0.3289,-0.3285,-0.3275,-0.3275,-0.327,-0.3258,-0.3253,-0.3219,-0.3223,-0.3218,-0.3213,-0.3179,-0.3179,-0.3178,-0.3187,-0.3187,-0.3186,0,0,0,0,0,0,-0.3353,-0.3334,-0.333,-0.3317,-0.3305,-0.3287,-0.328,-0.3275,-0.3262,-0.3262,-0.3248,-0.3244,-0.3229,-0.3219,-0.3224,-0.3199,-0.3199,-0.3197,-0.3206,-0.3206,-0.3206,-0.3209,-0.3217,0,0,0,0,0,-0.3354,-0.3343,-0.3327,-0.3316,-0.331,-0.3297,-0.3289,-0.3282,-0.3268,-0.3263,-0.325,-0.3236,-0.3223,-0.3214,-0.32,-0.3185,-0.318,-0.3179,-0.3179,-0.3179,-0.3178,-0.3169,-0.3168,-0.3177,-0.3177,-0.3177,0,0,-0.3354,-0.3343,-0.3337,-0.3318,-0.3307,-0.3296,-0.3292,-0.328,-0.3271,-0.3261,-0.3245,-0.3235,-0.3219,-0.3203,-0.3196,-0.3195,-0.3175,-0.3179,-0.3179,-0.3177,-0.3168,-0.3167,-0.3167,-0.3176,-0.3176,-0.3176,0,0,-0.335,-0.334,-0.333,-0.332,-0.3305,-0.3296,-0.3294,-0.3276,-0.327,-0.3254,-0.3246,-0.3235,-0.3211,-0.32,-0.3191,-0.3182,-0.3176,-0.3178,-0.3177,-0.3169,-0.3168,-0.3167,-0.3164,-0.3163,-0.3177,-0.3177,-0.3177,0,-0.3352,-0.3336,-0.3326,-0.3314,-0.3306,-0.3297,-0.3286,-0.3276,-0.3257,-0.3251,-0.325,-0.3221,-0.3209,-0.3191,-0.3189,-0.3182,-0.3178,-0.318,-0.3169,-0.3168,-0.3167,-0.3164,-0.3163,-0.3177,-0.3177,-0.3177,-0.3177,0,-0.3339,-0.3328,-0.3322,-0.3304,-0.3295,-0.3284,-0.3271,-0.3263,-0.3257,-0.3247,-0.3231,-0.3217,-0.32,-0.3195,-0.3188,-0.3175,-0.3175,-0.3172,-0.3171,-0.3167,-0.3163,-0.3162,-0.3177,-0.3177,-0.3177,-0.3177,0,0,-0.334,-0.3317,-0.3315,-0.3307,-0.3289,-0.328,-0.3268,-0.3252,-0.3245,-0.3232,-0.3221,-0.3202,-0.3199,-0.3189,-0.3181,-0.3173,-0.3166,-0.3171,-0.317,-0.317,-0.315,-0.3153,-0.3152,-0.3162,-0.3162,-0.3162,-0.3152,0,-0.3333,-0.3312,-0.3303,-0.3286,-0.3275,-0.3266,-0.3256,-0.3243,-0.3234,-0.3222,-0.3211,-0.3198,-0.3195,-0.3189,-0.3181,-0.3169,-0.3162,-0.3169,-0.3151,-0.3151,-0.3156,-0.315,-0.3152,-0.3144,-0.315,-0.315,-0.315,0,-0.3322,-0.331,-0.3293,-0.3276,-0.3271,-0.3262,-0.3247,-0.3236,-0.3222,-0.3215,-0.3204,-0.3196,-0.3182,-0.3182,-0.3162,-0.3168,-0.3159,-0.3152,-0.3152,-0.3149,-0.315,-0.3147,-0.3141,-0.3139,-0.3148,-0.3148,-0.3148,0,-0.3324,-0.3303,-0.329,-0.3283,-0.3264,-0.3258,-0.3249,-0.3235,-0.3226,-0.3212,-0.3206,-0.3191,-0.3182,-0.317,-0.3158,-0.3159,-0.3139,-0.3138,-0.3132,-0.3133,-0.3128,-0.3129,-0.3121,-0.3123,-0.3123,-0.3123,-0.3124,0,-0.3317,-0.3306,-0.329,-0.3282,-0.327,-0.3259,-0.3247,-0.3237,-0.3224,-0.3214,-0.3204,-0.3194,-0.3179,-0.3166,-0.3156,-0.3141,-0.3137,-0.3131,-0.3128,-0.3132,-0.3133,-0.3126,-0.3126,-0.3123,-0.3123,-0.3123,-0.3123,0,-0.3317,-0.3306,-0.3291,-0.3274,-0.3269,-0.3261,-0.3246,-0.3237,-0.3227,-0.3214,-0.321,-0.3194,-0.3179,-0.3166,-0.3145,-0.3138,-0.3123,-0.312,-0.3128,-0.3127,-0.3122,-0.3123,-0.3109,-0.3107,-0.3112,-0.3111,-0.3111,0,-0.3313,-0.3305,-0.3287,-0.328,-0.3272,-0.326,-0.3251,-0.3239,-0.323,-0.3213,-0.3206,-0.319,-0.3177,-0.3153,-0.3139,-0.3123,-0.312,-0.3116,-0.3117,-0.3121,-0.3119,-0.312,-0.3119,-0.3116,-0.3116,-0.3116,-0.3116,0,-0.3308,-0.3303,-0.3291,-0.3277,-0.3267,-0.3256,-0.3244,-0.3238,-0.3223,-0.3214,-0.3199,-0.3188,-0.3168,-0.3152,-0.3135,-0.3125,-0.3118,-0.3116,-0.3114,-0.3117,-0.3122,-0.3119,-0.3128,-0.3116,-0.3116,-0.3116,-0.3116,-0.3116,-0.3306,-0.3298,-0.3285,-0.3272,-0.3262,-0.3251,-0.3242,-0.3231,-0.3219,-0.3202,-0.3195,-0.318,-0.3164,-0.314,-0.313,-0.3117,-0.3116,-0.3113,-0.3112,-0.3111,-0.3112,-0.3125,-0.3114,-0.3114,-0.3114,-0.3114,-0.3114,0,-0.33,-0.3291,-0.3279,-0.3263,-0.3253,-0.3248,-0.3234,-0.3226,-0.3213,-0.3199,-0.3187,-0.3169,-0.3154,-0.3139,-0.3122,-0.3115,-0.3111,-0.3111,-0.3111,-0.3109,-0.3114,-0.3118,-0.3114,-0.3114,-0.3114,-0.3114,-0.3114,-0.3114,-0.3296,-0.3283,-0.3276,-0.3257,-0.3248,-0.3233,-0.3226,-0.3215,-0.3205,-0.3186,-0.3174,-0.3164,-0.315,-0.3132,-0.3118,-0.3114,-0.3108,-0.3108,-0.3103,-0.3108,-0.3109,-0.3109,-0.3112,-0.3107,-0.3107,-0.3099,-0.3099,-0.3099]},{"header":{"parameterUnit":"m.s-1","parameterCategory":1,"la1":30.2991,"la2":30.254,"lo1":-89.0895,"lo2":-89.0444,"dy":0.0017,"dx":0.0017,"nx":28,"ny":28,"refTime":"2024-03-15T21:00:00:Z","depth":0,"parameterNumber":3,"parameterNumberName":"V-component_of_WINDS"},"data":[0,0,0,0,0,0,0,0,0,0,0,0,0,0,0,0,0,0,0,0,0,0,0,0,0,0,0,0,0,0,0,0,0,0,0,0,0,0,0,0,0,0,0,0,0,0,0,0,0,0,0,0,0,0,0,0,0,0,0.3372,0.3372,0,0.3334,0.3333,0.3333,0.3316,0.3316,0.3316,0.3316,0.3274,0.3273,0.3272,0,0,0,0,0,0,0,0,0,0,0,0,0,0.3429,0.3428,0.3372,0.3372,0.3371,0.3334,0.3333,0.3333,0.3316,0.3316,0.3316,0.3316,0.3274,0.3273,0.3271,0,0,0,0,0,0,0,0,0,0,0,0,0,0.3398,0.3427,0.3372,0.3358,0.3357,0.3334,0.3333,0.3333,0.3316,0.3316,0.3316,0.3316,0.3275,0.3273,0.3271,0.3259,0,0,0.3266,0.3265,0,0,0,0,0,0,0,0,0.34,0.3396,0.3361,0.3359,0.3357,0.333,0.3338,0.3308,0.3316,0.3331,0.3316,0.3316,0.3292,0.3289,0.3282,0.3257,0.3255,0.3266,0.3265,0.3264,0.3263,0,0,0,0,0,0,0,0.3402,0.3398,0.3357,0.336,0.3358,0.3353,0.3349,0.3332,0.3312,0.333,0.3328,0.3324,0.3291,0.3283,0.328,0.3254,0.3266,0.3264,0.3263,0.3262,0.3218,0.3218,0,0,0,0,0,0,0.3407,0.34,0.3358,0.3356,0.338,0.3352,0.3347,0.3338,0.3312,0.3308,0.3324,0.3324,0.3286,0.3282,0.3279,0.3263,0.3264,0.3262,0.3261,0.3218,0.3218,0.3217,0,0,0,0,0,0,0.3408,0.3404,0.336,0.3378,0.3372,0.3351,0.3341,0.3338,0.333,0.3308,0.3304,0.332,0.3286,0.3281,0.3264,0.3261,0.3261,0.326,0.3218,0.3218,0.3218,0.323,0,0,0,0,0,0,0.341,0.3404,0.34,0.3378,0.3371,0.3347,0.3341,0.3337,0.3327,0.3326,0.3303,0.3299,0.3286,0.3267,0.3262,0.3259,0.3259,0.3218,0.3218,0.3218,0.323,0.323,0.3231,0,0,0,0,0,0.3412,0.3404,0.34,0.3395,0.3365,0.3346,0.3342,0.3328,0.3327,0.3322,0.3308,0.33,0.3262,0.3265,0.326,0.3256,0.3218,0.3218,0.3218,0.323,0.323,0.3231,0,0,0,0,0,0,0.3426,0.3401,0.3396,0.3381,0.3366,0.3344,0.3337,0.3329,0.3314,0.3313,0.3296,0.3291,0.3275,0.3264,0.3268,0.3242,0.3239,0.3238,0.325,0.3251,0.3251,0.3254,0.3257,0,0,0,0,0,0.3427,0.3415,0.3394,0.3382,0.3375,0.3358,0.3349,0.3339,0.3323,0.3316,0.3301,0.3285,0.3269,0.3259,0.3244,0.3228,0.3223,0.3223,0.3223,0.3224,0.3223,0.3213,0.3213,0.3216,0.3216,0.3216,0,0,0.3429,0.3414,0.3408,0.3385,0.3372,0.3359,0.3352,0.3339,0.3329,0.3314,0.3297,0.3285,0.3266,0.325,0.3242,0.3239,0.322,0.3223,0.3224,0.3222,0.3213,0.3213,0.3212,0.3216,0.3216,0.3216,0,0,0.3427,0.3415,0.3404,0.3392,0.3373,0.3362,0.3359,0.3338,0.333,0.3313,0.3302,0.3289,0.3263,0.325,0.3239,0.3233,0.3224,0.3228,0.323,0.3221,0.3221,0.3221,0.3218,0.3217,0.3227,0.3227,0.3227,0,0.3432,0.3413,0.3399,0.3387,0.3377,0.3364,0.3353,0.3341,0.3318,0.3311,0.3309,0.3277,0.3262,0.3243,0.3241,0.3234,0.323,0.323,0.3222,0.3222,0.3221,0.3219,0.3218,0.3228,0.3228,0.3227,0.3227,0,0.342,0.3407,0.34,0.338,0.3369,0.3357,0.3341,0.3332,0.3323,0.3311,0.3294,0.3277,0.3258,0.3252,0.3244,0.3231,0.3231,0.3226,0.3223,0.3222,0.3219,0.3218,0.3228,0.3228,0.3228,0.3228,0,0,0.3425,0.3397,0.3395,0.3386,0.3364,0.3354,0.3341,0.3323,0.3315,0.33,0.3288,0.3267,0.3262,0.3251,0.324,0.3233,0.3228,0.3229,0.3228,0.3229,0.3213,0.3217,0.3216,0.3223,0.3223,0.3222,0.3215,0,0.342,0.3397,0.3385,0.3367,0.3355,0.3343,0.3331,0.3317,0.3306,0.3293,0.328,0.3265,0.326,0.3253,0.3245,0.3231,0.3225,0.3231,0.3211,0.3211,0.3216,0.3215,0.3219,0.3213,0.3214,0.3214,0.3214,0,0.3411,0.3397,0.3378,0.3359,0.3353,0.3343,0.3326,0.3314,0.3297,0.3289,0.3277,0.3267,0.3252,0.325,0.3229,0.3234,0.3225,0.3217,0.3216,0.3214,0.3212,0.3212,0.321,0.3209,0.3212,0.3212,0.3212,0,0.3416,0.3392,0.3378,0.337,0.3347,0.3341,0.3331,0.3314,0.3304,0.3289,0.3282,0.3265,0.3255,0.3242,0.3227,0.3227,0.3208,0.3205,0.32,0.3201,0.3197,0.3197,0.3193,0.3191,0.3191,0.3191,0.3191,0,0.3411,0.34,0.338,0.3372,0.3359,0.3345,0.3332,0.3321,0.3306,0.3294,0.3282,0.3272,0.3253,0.3239,0.3228,0.3212,0.3208,0.3201,0.3198,0.3202,0.3203,0.3195,0.3195,0.3191,0.3191,0.3191,0.3191,0,0.3415,0.3401,0.3385,0.3365,0.336,0.3351,0.3333,0.3324,0.3312,0.3298,0.3294,0.3275,0.3258,0.3243,0.322,0.3212,0.3197,0.3193,0.3203,0.3201,0.3198,0.3198,0.3189,0.3187,0.3187,0.3187,0.3187,0,0.3413,0.3404,0.3384,0.3376,0.3366,0.3353,0.3343,0.3328,0.3318,0.3299,0.3292,0.3275,0.326,0.3235,0.3218,0.3201,0.3197,0.3195,0.3194,0.3198,0.3196,0.3197,0.3196,0.3195,0.3195,0.3195,0.3195,0,0.341,0.3404,0.3391,0.3376,0.3365,0.3352,0.3338,0.3332,0.3314,0.3303,0.3287,0.3276,0.3254,0.3237,0.3218,0.3207,0.3198,0.3196,0.3194,0.3198,0.3204,0.32,0.3204,0.3196,0.3196,0.3196,0.3196,0.3196,0.3411,0.3403,0.3387,0.3373,0.3362,0.3349,0.334,0.3327,0.3314,0.3295,0.3287,0.327,0.3253,0.3227,0.3216,0.3202,0.32,0.3197,0.3196,0.3196,0.3197,0.3206,0.3199,0.3199,0.3199,0.3198,0.3198,0,0.3408,0.3397,0.3385,0.3366,0.3355,0.3349,0.3334,0.3324,0.331,0.3296,0.3282,0.3263,0.3247,0.323,0.3212,0.3204,0.32,0.32,0.32,0.3198,0.32,0.3203,0.3204,0.3204,0.3204,0.3204,0.3204,0.3204,0.3405,0.3391,0.3383,0.3363,0.3352,0.3337,0.3329,0.3317,0.3305,0.3285,0.3272,0.3261,0.3245,0.3227,0.3211,0.3206,0.32,0.3202,0.3196,0.3198,0.3198,0.3197,0.32,0.3201,0.3201,0.3195,0.3195,0.3195]}]]